Tracking 20942 objects as of 13-Jul-2020
HD Live streaming from Space Station
objects crossing your sky now

THOR ABLESTAR DEB

Track THOR ABLESTAR DEB now!
10-day predictions


NORAD ID: 4028
Int'l Code: 1961-015JQ
Perigee: 641.4 km
Apogee: 801.5 km
Inclination: 66.8 °
Period: 99.1 minutes
Semi major axis: 7092 km
RCS: 0.0031 m2 (small)
Launch date: June 29, 1961
Source: United States (US)
Launch site: AIR FORCE EASTERN TEST RANGE (AFETR)

Note: This is SATELLITE DEBRIS
aabbcc
Your satellite tracking list
Your tracking list is empty




NASA's NSSDC Master Catalog

Two Line Element Set (TLE):
1  4028U 61015JQ  20194.87814662 -.00000044  00000-0  13762-4 0  9997
2  4028  66.7537 122.5449 0112893 219.7693 139.5104 14.53475349 58414
Source of the keplerian elements: AFSPC